Flag for Bermuda Weather past 2 weeks in Hamilton, Bermuda

Now
70 °F

Partly cloudy.


Feels Like: 70 °F
Forecast: 69 / 73 °F
Wind: 15 mph from Northeast

Location: Bermuda

Current Time: May 26, 2015 at 7:52:48 AM

Latest Report: May 26, 2015 at 6:55 AM


Visibility: N/A

Pressure: 30.33 "Hg

Humidity: 64%

Dew point: 57 °F

Location of HamiltonLocation

Historic Weather in Hamilton — Graph

°F

Hamilton temperature yesterday

Maximum temperature yesterday: 75 °F (at 11:55 AM)
Minimum temperature yesterday: 70 °F (at 12:55 AM)
Average temperature yesterday: 72 °F

Past Weeks' High & Low Weather Summary

 TemperatureHumidityPressure
High79 °F (May 21, 12:55 PM)94% (May 22, 3:55 AM)30.39 "Hg (May 22, 3:55 AM)
Low66 °F (May 16, 4:55 AM)50% (May 17, 9:55 AM)29.92 "Hg (May 19, 2:55 AM)
Average72 °F71%30.18 "Hg
* Reported May 11 6:55 AM — May 26 6:55 AM, Hamilton, Weather by CustomWeather, © 2015

Note: Actual official high and low records may vary slightly from our data, if they occured in-between our weather recording intervals... More about our weather records

Advertising

Hamilton weather history for previous 24 hours

 ConditionsComfort  
Time TempWeatherWind HumidityBarometerVisibility
6:55 AM
Tue, May 26
70 °FPartly cloudy.15 mph64%30.33 "HgN/A
5:55 AM68 °FPassing clouds.16 mph64%30.30 "HgN/A
4:55 AM70 °FPassing clouds.16 mph60%30.30 "HgN/A
2:55 AM70 °FPartly cloudy.17 mph69%30.30 "HgN/A
1:55 AM70 °FPartly cloudy.16 mph69%30.30 "HgN/A
12:55 AM70 °FPassing clouds.16 mph73%30.33 "HgN/A
11:55 PM
Mon, May 25
70 °FPassing clouds.16 mph69%30.33 "HgN/A
10:55 PM70 °FPassing clouds.13 mph69%30.33 "HgN/A
9:55 PM70 °FPassing clouds.13 mph60%30.33 "HgN/A
8:55 PM70 °FBroken clouds.12 mph69%30.33 "HgN/A
7:55 PM70 °FBroken clouds.10 mph69%30.33 "HgN/A
6:55 PM72 °FBroken clouds.13 mph69%30.33 "HgN/A
5:55 PM73 °FBroken clouds.15 mph65%30.33 "HgN/A
4:55 PM73 °FBroken clouds.15 mph65%30.33 "HgN/A
3:55 PM75 °FBroken clouds.18 mph65%30.33 "HgN/A
2:55 PM75 °FBroken clouds.16 mph65%30.33 "HgN/A
1:55 PM73 °FBroken clouds.18 mph65%30.33 "HgN/A
12:55 PM73 °FBroken clouds.18 mph74%30.36 "HgN/A
11:55 AM75 °FBroken clouds.18 mph61%30.36 "HgN/A
10:55 AM73 °FBroken clouds.18 mph69%30.33 "HgN/A
9:55 AM73 °FBroken clouds.18 mph69%30.33 "HgN/A
8:55 AM72 °FBroken clouds.18 mph69%30.33 "HgN/A
7:55 AM72 °FBroken clouds.15 mph73%30.33 "HgN/A
Weather by CustomWeather, © 2015

See weather overviewHow to use our weather pages